BEIDOU-3 M16 (C35)

Last updated on Tue Sep 16 2025 00:03:24 GMT+0000 (Coordinated Universal Time)

1 43647U 18078A 25258.10234331 -.00000052 00000+0 00000+0 0 9993 2 43647 54.3390 309.6203 0005789 22.4465 337.6420 1.86232205 47033
UTC large
Height (km)
Speed (km/s)
/
Latitude / Longitude
Inclination (degrees)
Orbital Period (minutes)
Azimuth
Elevation
Range (km)
Doppler Factor

Next 0 passes for location: London (51.5072 / 0.1276)

Sorry there are no passes over London.